Location: Brown Observing Site
(43.4354°N, 116.3366°W)
Time: 14:58:37
(UTC-06:00)

Envisat - Pass Details

Date: 24 March 2019
Orbit: 764 x 766 km, 98.1° (Epoch: 14 October)

Event Time Altitude Azimuth Distance (km) Brightness Sun altitude
Rises 21:23:45 0° 201° (SSW) 3,214 6.3 -15.3°
Reaches altitude 10° 21:26:32 10° 216° (SW) 2,294 5.7 -15.8°
Maximum altitude 21:30:26 22° 267° (W) 1,613 5.5 -16.5°
Drops below altitude 10° 21:34:22 10° 318° (NW) 2,308 6.4 -17.1°
Sets 21:37:11 0° 334° (NNW) 3,240 7.0 -17.6°
